Location: Caltech
(34.1382°N, 118.1253°W)
Time: 20:43:06
(UTC-07:00)

Oscar 19 - Visible Passes

Search period start: 31 July 2014 00:00
Search period end: 10 August 2014 00:00
Orbit: 774 x 792 km, 98.5° (Epoch: 30 July)

Date Brightness Start Highest point End Pass type
(mag) Time Alt. Az. Time Alt. Az. Time Alt. Az.
31 Jul 12.1 02:09:42 10° NNE 02:12:49 34° NE 02:12:49 34° NE visible
31 Jul 12.5 03:50:33 10° NNW 03:53:24 16° WNW 03:53:24 16° WNW visible
01 Aug 12.8 01:38:51 10° NE 01:40:50 19° ENE 01:40:50 19° ENE visible
01 Aug 11.9 03:17:50 10° N 03:21:24 30° NW 03:21:24 30° NW visible
02 Aug 11.6 02:45:52 10° N 02:49:24 43° N 02:49:24 43° N visible
03 Aug 12.1 02:14:22 10° NNE 02:17:24 34° NE 02:17:24 34° NE visible
03 Aug 12.6 03:55:34 10° NNW 03:57:58 14° WNW 03:57:58 14° WNW visible
04 Aug 12.8 01:43:24 10° NE 01:45:24 20° NE 01:45:24 20° NE visible
04 Aug 12.1 03:22:40 10° NNW 03:25:58 27° NW 03:25:58 27° NW visible
05 Aug 11.7 02:50:37 10° N 02:53:58 39° NNW 02:53:58 39° NNW visible
06 Aug 12.1 02:19:02 10° NNE 02:21:58 34° NNE 02:21:58 34° NNE visible
06 Aug 12.7 04:00:40 10° NW 04:02:32 13° WNW 04:02:32 13° WNW visible
07 Aug 12.8 01:47:59 10° NE 01:49:58 20° NE 01:49:58 20° NE visible
07 Aug 12.2 03:27:30 10° NNW 03:30:32 24° NW 03:30:32 24° NW visible
08 Aug 13.4 01:17:54 10° ENE 01:17:58 10° ENE 01:17:58 10° ENE visible
08 Aug 11.9 02:55:22 10° N 02:58:32 35° NNW 02:58:32 35° NNW visible
09 Aug 12.2 02:23:43 10° NNE 02:26:31 33° NNE 02:26:31 33° NNE visible
09 Aug 12.8 04:05:55 10° NW 04:07:06 11° WNW 04:07:06 11° WNW visible
